Location: Haliburton Scout Reserve
(45.0900°N, 78.3200°W)
Time: 01:12:05
(UTC-04:00)

DIWATA 2B (PO-101) - Pass Details

Date: 22 May 2022
Orbit: 585 x 597 km, 98.0° (Epoch: 27 June)

Event Time Altitude Azimuth Distance (km) Brightness Sun altitude
Exits shadow 03:18:29 41° 203° (SSW) 850 ? -18.3°
Maximum altitude 03:19:38 58° 259° (W) 687 ? -18.2°
Drops below altitude 10° 03:23:45 10° 339° (NNW) 1,923 ? -17.8°
Sets 03:25:58 0° 344° (NNW) 2,830 ? -17.6°
